KG4K-13 Weather Reports


Display with metric or nautical units.
time (UTC)temp
F
wind
direction
speed
MPH
gust
MPH
rain 1hr
in
rain 24hr
in
rain mn
in
humidity
%
barometer
mb
20260507060525 58 283 3.0 4.0 0.30 0.76 0.41 94 1010.7
20260507055525 58 288 3.0 4.0 0.34 0.76 0.41 93 1010.8
20260507054525 59 285 3.0 4.0 0.40 0.74 0.40 92 1010.5
20260507053546 59 283 3.0 4.0 0.35 0.70 0.35 91 1010.5
20260507052517 61 288 2.0 6.0 0.27 0.62 0.27 89 1010.8
20260507051526 62 303 3.0 4.0 0.15 0.50 0.15 89 1011.0
20260507050526 63 314 1.0 3.0 0.11 0.45 0.11 86 1010.8
20260507045526 65 319 2.0 5.0 0.07 0.42 0.07 79 1010.8
20260507044517 65 304 4.0 6.0 0.00 0.35 0.00 78 1010.8
20260507043517 65 303 4.0 6.0 0.00 0.35 0.00 77 1010.5
20260507042527 65 309 3.0 5.0 0.00 0.35 0.00 77 1010.4
20260507041526 65 310 3.0 4.0 0.00 0.35 0.00 76 1009.9
20260507040527 65 317 2.0 3.0 0.00 0.35 0.00 76 1010.0
20260507035527 65 314 3.0 4.0 0.00 0.35 0.35 77 1010.2
20260507034518 65 302 4.0 9.0 0.00 0.35 0.35 79 1010.2
20260507033515 66 310 3.0 6.0 0.00 0.35 0.35 81 1010.1
20260507032516 65 310 4.0 6.0 0.00 0.35 0.35 87 1009.9
20260507031515 65 317 1.0 2.0 0.00 0.35 0.35 91 1009.9
20260507030536 65 263 0.0 2.0 0.00 0.35 0.35 92 1009.7
20260507025516 64 313 3.0 5.0 0.00 0.35 0.35 91 1009.9
20260507024536 64 267 0.0 2.0 0.00 0.35 0.35 91 1009.3
20260507023516 64 288 0.0 1.0 0.00 0.35 0.35 90 1009.5
20260507022517 64 283 0.0 2.0 0.00 0.35 0.35 90 1009.3
20260507021537 65 203 0.0 1.0 0.00 0.35 0.35 90 1009.4
20260507020517 65 281 0.0 1.0 0.00 0.35 0.35 89 1009.4
20260507015557 65 280 0.0 1.0 0.00 0.35 0.35 89 1009.2
20260507014518 65 280 0.0 1.0 0.00 0.35 0.35 89 1009.7
20260507013517 65 15 0.0 1.0 0.00 0.35 0.35 88 1009.9
20260507012517 65 277 0.0 1.0 0.00 0.35 0.35 89 1010.0
20260507011518 65 228 0.0 1.0 0.00 0.35 0.35 88 1010.1
20260507010518 66 233 0.0 1.0 0.00 0.35 0.35 87 1009.8
20260507005518 66 271 0.0 1.0 0.00 0.35 0.35 86 1009.7
20260507004518 67 291 0.0 1.0 0.00 0.35 0.35 84 1009.5
20260507003515 67 281 0.0 1.0 0.00 0.35 0.35 84 1009.5
20260507002516 68 306 0.0 1.0 0.00 0.35 0.35 83 1009.4
20260507001515 68 247 0.0 0.0 0.00 0.35 0.35 82 1009.6
20260507000536 68 0.0 0.0 0.00 0.35 0.35 81 1009.5
20260506235516 69 315 0.0 0.0 0.00 0.35 0.35 80 1009.4
20260506234516 69 204 0.0 2.0 0.00 0.35 0.35 79 1009.2
20260506233516 70 228 0.0 1.0 0.00 0.35 0.35 78 1009.2
20260506232516 70 235 1.0 3.0 0.00 0.35 0.35 78 1008.8
20260506231537 70 206 0.0 2.0 0.00 0.35 0.35 78 1008.9
20260506230517 70 182 0.0 3.0 0.00 0.35 0.35 78 1009.1
20260506225517 70 227 0.0 2.0 0.00 0.35 0.35 77 1008.8
20260506224517 70 212 0.0 2.0 0.00 0.35 0.35 77 1008.9
20260506223517 71 89 0.0 2.0 0.00 0.35 0.35 76 1008.9
20260506222517 71 158 0.0 3.0 0.00 0.35 0.35 76 1008.9
20260506221538 71 213 0.0 3.0 0.00 0.35 0.35 76 1009.0
20260506220538 71 67 0.0 2.0 0.00 0.35 0.35 76 1008.9
20260506215515 71 199 1.0 3.0 0.00 0.35 0.35 76 1009.0
20260506214515 72 77 1.0 2.0 0.00 0.35 0.35 74 1008.9
20260506213516 71 257 1.0 3.0 0.00 0.35 0.35 74 1008.7
20260506212516 71 181 1.0 4.0 0.00 0.35 0.35 75 1008.8
20260506211516 71 71 1.0 4.0 0.00 0.35 0.35 76 1008.6
20260506210516 71 186 1.0 5.0 0.00 0.35 0.35 75 1008.5
20260506205516 71 360 1.0 4.0 0.00 0.35 0.35 75 1008.4
20260506204516 71 68 2.0 5.0 0.00 0.35 0.35 75 1008.5
20260506203517 71 68 1.0 5.0 0.00 0.35 0.35 75 1008.4
20260506202517 71 177 1.0 7.0 0.00 0.35 0.35 75 1008.4
20260506201517 71 354 1.0 4.0 0.00 0.35 0.35 74 1008.5
20260506200537 72 147 1.0 6.0 0.00 0.35 0.35 74 1008.4
20260506195517 72 193 1.0 6.0 0.00 0.35 0.35 74 1008.4
20260506194517 72 167 2.0 7.0 0.00 0.35 0.35 73 1008.6
20260506193518 72 178 2.0 4.0 0.00 0.35 0.35 73 1008.6
20260506192518 71 191 1.0 6.0 0.00 0.35 0.35 76 1008.6
20260506191518 70 198 1.0 3.0 0.00 0.35 0.35 76 1008.8
20260506190518 70 70 1.0 3.0 0.00 0.35 0.35 76 1008.8
20260506185515 70 184 1.0 5.0 0.00 0.35 0.35 77 1008.9
20260506184516 70 187 2.0 5.0 0.00 0.35 0.35 76 1009.1
20260506183535 70 205 2.0 5.0 0.00 0.35 0.35 77 1009.2
20260506182516 70 196 2.0 8.0 0.00 0.35 0.35 77 1009.4
20260506181516 69 83 1.0 6.0 0.00 0.35 0.35 78 1009.4
20260506180516 68 206 2.0 6.0 0.00 0.35 0.35 79 1009.7
20260506175517 67 284 1.0 4.0 0.00 0.35 0.35 80 1009.7
20260506174516 67 241 2.0 5.0 0.00 0.35 0.35 82 1009.7
20260506173516 66 223 2.0 5.0 0.00 0.35 0.35 82 1009.7
20260506172517 66 264 2.0 6.0 0.00 0.35 0.35 84 1009.9
20260506171523 66 288 2.0 4.0 0.00 0.35 0.35 85 1009.8
20260506170522 65 234 2.0 3.0 0.00 0.35 0.35 87 1009.9
20260506165543 64 221 1.0 4.0 0.00 0.35 0.35 88 1010.2
20260506164523 64 235 1.0 4.0 0.01 0.35 0.35 89 1010.1
20260506163523 64 296 1.0 3.0 0.03 0.35 0.35 89 1009.8
20260506162524 63 354 1.0 3.0 0.04 0.35 0.35 91 1009.9
20260506161524 62 248 2.0 3.0 0.05 0.35 0.35 92 1010.3
20260506160524 62 222 1.0 3.0 0.06 0.35 0.35 93 1010.4
20260506155523 62 222 2.0 4.0 0.10 0.35 0.35 92 1010.3
20260506154524 62 230 1.0 5.0 0.15 0.34 0.34 92 1010.2
20260506153524 62 215 1.0 3.0 0.21 0.32 0.32 92 1010.5
20260506152524 62 243 1.0 4.0 0.22 0.31 0.31 92 1011.1
20260506151545 62 231 1.0 3.0 0.22 0.30 0.30 92 1011.1
20260506150525 62 242 1.0 3.0 0.26 0.29 0.29 91 1011.1
20260506145545 62 239 0.0 2.0 0.23 0.25 0.25 91 1011.2
20260506144525 62 240 1.0 2.0 0.19 0.19 0.19 89 1011.1
20260506143525 63 241 1.0 2.0 0.11 0.11 0.11 88 1011.1
20260506142540 63 206 1.0 5.0 0.10 0.10 0.10 87 1011.2
20260506141525 63 212 1.0 4.0 0.08 0.08 0.08 85 1011.3
20260506140526 64 231 1.0 3.0 0.04 0.04 0.04 82 1011.3
20260506135526 65 223 2.0 4.0 0.02 0.02 0.02 79 1011.4
20260506134526 64 198 1.0 3.0 0.00 0.00 0.00 80 1011.5
20260506133547 64 227 1.0 2.0 0.00 0.00 0.00 81 1011.3
20260506132527 64 216 2.0 5.0 0.00 0.00 0.00 82 1011.2
20260506131527 64 183 2.0 5.0 0.00 0.00 0.00 81 1011.1
20260506130521 64 214 2.0 6.0 0.00 0.00 0.00 80 1011.0
20260506125527 64 221 1.0 3.0 0.00 0.00 0.00 80 1011.0
20260506124527 64 214 2.0 4.0 0.00 0.00 0.00 80 1011.1
20260506123515 64 201 2.0 5.0 0.00 0.00 0.00 80 1011.3
20260506122527 64 223 2.0 5.0 0.00 0.00 0.00 79 1011.3
20260506121536 65 260 2.0 5.0 0.00 0.00 0.00 79 1011.3
20260506120548 64 251 1.0 3.0 0.00 0.00 0.00 79 1011.3
20260506115527 64 227 2.0 5.0 0.00 0.00 0.00 80 1011.2
20260506114516 64 175 2.0 5.0 0.00 0.00 0.00 81 1011.1
20260506113528 64 311 1.0 3.0 0.00 0.00 0.00 81 1011.0
20260506112516 64 194 2.0 6.0 0.00 0.00 0.00 81 1010.9
20260506111516 64 267 1.0 7.0 0.00 0.00 0.00 81 1010.7
20260506110528 64 273 1.0 3.0 0.00 0.00 0.00 82 1010.7
20260506105528 64 260 1.0 3.0 0.00 0.00 0.00 81 1010.7
20260506104529 64 213 1.0 4.0 0.00 0.00 0.00 82 1010.6
20260506103537 64 204 2.0 6.0 0.00 0.00 0.00 82 1010.6
20260506102529 64 237 1.0 4.0 0.00 0.00 0.00 82 1010.6
20260506101529 64 208 1.0 3.0 0.00 0.00 0.00 82 1010.5
20260506100529 64 188 1.0 3.0 0.00 0.00 0.00 82 1010.6
20260506095529 64 223 1.0 3.0 0.00 0.00 0.00 81 1010.7
20260506094529 64 195 1.0 3.0 0.00 0.00 0.00 81 1010.7
20260506093529 64 268 1.0 3.0 0.00 0.00 0.00 80 1010.7
20260506092530 64 238 2.0 4.0 0.00 0.00 0.00 80 1010.7
20260506091550 64 157 2.0 4.0 0.00 0.00 0.00 81 1010.7
20260506090550 63 297 1.0 3.0 0.00 0.00 0.00 82 1010.8
20260506085530 63 196 1.0 4.0 0.00 0.00 0.00 84 1010.7
20260506084530 64 219 1.0 4.0 0.00 0.00 0.00 82 1010.7
20260506083515 64 269 2.0 4.0 0.00 0.00 0.00 82 1010.8
20260506082516 64 187 1.0 4.0 0.00 0.00 0.00 81 1010.8
20260506081518 65 194 2.0 8.0 0.00 0.00 0.00 80 1010.7
20260506080516 65 221 1.0 4.0 0.00 0.00 0.00 79 1010.6
20260506073516 66 259 1.0 1.0 0.00 0.00 0.00 77 1010.9
20260506072516 66 207 1.0 2.0 0.00 0.00 0.00 77 1011.0
20260506071517 66 205 1.0 3.0 0.00 0.00 0.00 76 1011.0
20260506070517 66 251 1.0 4.0 0.00 0.00 0.00 75 1011.0
20260506061517 64 253 1.0 3.0 0.00 0.00 0.00 82 1011.1